Regional Weather Roundup
Issued by NWS

Home | Current Version | Previous Version | Graphics & Text | Print | Product List | Glossary On
Versions: 1 2 3 4 5 6 7 8 9 10 11 12 13 14 15 16 17 18 19 20 21 22 23 24 25 26 27 28 29 30 31 32 33 34 35 36 37 38 39 40 41 42 43 44 45 46 47 48 49 50
000
ASUS43 KLOT 190008
RWRIL

ILLINOIS REGIONAL WEATHER ROUNDUP
NATIONAL WEATHER SERVICE CHICAGO/ROMEOVILLE IL
700 PM CDT FRI AUG 18 2017

NOTE: "FAIR" INDICATES FEW OR NO CLOUDS BELOW 12,000 FEET WITH NO
SIGNIFICANT WEATHER AND/OR OBSTRUCTIONS TO VISIBILITY.

* THESE STATIONS ARE NOT UNDER NWS QUALITY CONTROL. THEY ALSO MAY NOT
  REPORT WEATHER SUCH AS PRECIPITATION OR FOG.

ILZ001-002-007-009-015-016-024-190100-
NORTHWEST ILLINOIS

CITY           SKY/WX    TMP DP  RH WIND       PRES   REMARKS
MOLINE         CLEAR     80  64  58 NW6       29.87R HX  82
6HR MIN TEMP:  80; 6HR MAX TEMP:  84;

STERLING*      CLEAR     76  64  66 NW6       29.88S
SAVANNA*       CLOUDY    76  59  56 N6        29.88S
$$

ILZ003-004-008-010-011-017-018-190100-
NORTH CENTRAL ILLINOIS

CITY           SKY/WX    TMP DP  RH WIND       PRES   REMARKS
ROCKFORD       MOCLDY    76  61  59 NW9       29.89R
6HR MIN TEMP:  75; 6HR MAX TEMP:  80;

FREEPORT*      PTCLDY    72  61  68 NW8       29.91S
ROCHELLE*      MOCLDY    75  64  67 W6        29.89S
DE KALB*       PTCLDY    74  62  67 W8        29.89S
PERU*          MOCLDY    77  64  64 W5        29.88S
$$

ILZ005-006-012>014-019>023-190100-
NORTHEAST ILLINOIS

CITY           SKY/WX    TMP DP  RH WIND       PRES   REMARKS
CHICAGO-OHARE  PTCLDY    79  59  50 W12       29.85R HX  80
6HR MIN TEMP:  78; 6HR MAX TEMP:  82;

CHICAGO-MIDWAY PTCLDY    80  59  48 W13       29.85R HX  81
6HR MIN TEMP:  78; 6HR MAX TEMP:  83;

AURORA         CLEAR     75  64  68 W7        29.88R
6HR MIN TEMP:  75; 6HR MAX TEMP:  80;

LANSING*       CLEAR     78  58  50 W10       29.87R
JOLIET*        CLEAR     80  64  59 W5        29.87S HX  81
WAUKEGAN       MOCLDY    75  64  68 W5        29.84S
6HR MIN TEMP:  74; 6HR MAX TEMP:  79;

DUPAGE AIRPORT CLEAR     76  62  62 W12       29.86R
6HR MIN TEMP:  76; 6HR MAX TEMP:  80;

KANKAKEE*      CLOUDY    77  64  65 W5        29.88S
WHEELING       MOCLDY    78  63  59 W9        29.86R HX  80
6HR MIN TEMP:  76; 6HR MAX TEMP:  81;

MORRIS*        CLEAR     76  65  69 W3        29.87R
ROMEOVILLE*    CLEAR     76  59  55 W9        29.87S
NORTHERLY ISL    N/A     77  63  61 NE5         N/A
$$

LMZ740>746-190100-
SOUTHERN LAKE MICHIGAN

STATION/POSITION SKY/WX   TEMP    WIND        PRES    VSBY  WAVE
                          AIR SEA DIR/SP/G                  HT/PER
                          (F)     (DEG/KT/KT) (MB)    (MI)  (FT/S)
SOUTHERN BUOY              71 71   60/  2/  2 1010.7          2/ 4
WILMETTE HARBOR            75 73  280/  6/  8   N/A           1/ 2
HARRISON CRIB              74      90/  7/  8   N/A
CALUMET HARBOR             80     220/  6/ 11 1010.4R
BURNS HARBOR               80     250/ 10/ 13 1011.2R
MICHIGAN CITY              73      30/  8/  9   N/A
MICHIGAN CITY 6N           73 75   50/  8/ 10   N/A           2/ 5
ST. JOSEPH                 72 74   60/  4/  6 1010.9          2/ 5
$$

ILZ025>027-034>036-040-047-049-050-058-095>099-190100-
WEST-CENTRAL ILLINOIS

CITY           SKY/WX    TMP DP  RH WIND       PRES   REMARKS
QUINCY         PTCLDY    81  67  62 SW12      29.88R HX  83
GALESBURG*     PTCLDY    77  68  73 CALM      29.88F
MACOMB*        PTCLDY    80  66  64 SW5       29.89R HX  82
JACKSONVILLE*  CLEAR     81  66  60 S7        29.88S HX  83
PITTSFIELD*    CLEAR     82  67  60 SW7       29.90S HX  84
$$

ILZ028>032-037-038-041>044-048-051>054-059>061-190100-
CENTRAL ILLINOIS

CITY           SKY/WX    TMP DP  RH WIND       PRES   REMARKS
PONTIAC        CLEAR     79  70  73 SW6       29.88S HX  82
BLOOMINGTON    PTCLDY    78  66  66 SW7       29.90S HX  80
DECATUR        PTCLDY    81  66  60 W6        29.90R HX  83
PEORIA         CLEAR     81  66  60 SW6       29.87S HX  83
6HR MIN TEMP:  81; 6HR MAX TEMP:  85;

LACON*         CLEAR     80  66  62 W6        29.87S HX  82
LINCOLN*       CLEAR     83  66  57 S6        29.88S HX  85
SPRINGFIELD    CLEAR     83  67  58 SW9       29.88F HX  85
6HR MIN TEMP:  82; 6HR MAX TEMP:  87;

TAYLORVILLE    MOCLDY    78  67  69 SW6       29.90S HX  80
6HR MIN TEMP:  78; 6HR MAX TEMP:  84;

$$

ILZ033-039-045-046-055>057-062-063-190100-
EAST-CENTRAL ILLINOIS

CITY           SKY/WX    TMP DP  RH WIND       PRES   REMARKS
CHAMPAIGN      CLEAR     78  66  66 SW7       29.90S HX  80
RANTOUL*       CLOUDY    82  67  58 W5        29.89F HX  85
MATTOON        CLOUDY    79  67  66 SW5       29.90S HX  81
PARIS*         PTCLDY    77  67  71 S3        29.90F
$$

ILZ079-100>102-190100-
SOUTHWEST ILLINOIS

CITY           SKY/WX    TMP DP  RH WIND       PRES   REMARKS
ALTON          MOCLDY    79  68  69 S7        29.91S HX  81
BELLEVILLE     MOCLDY    81  68  63 SW8       29.93S HX  84
CAHOKIA*       CLOUDY    84  65  52 VRB6      29.91S HX  86
SPARTA*        CLOUDY    80  66  62 S5        29.94F HX  83
$$

ILZ064>066-069>071-074>076-080>082-084>086-088>090-092>094-190100-
SOUTH-CENTRAL ILLINOIS

CITY           SKY/WX    TMP DP  RH WIND       PRES   REMARKS
CARBONDALE     PTCLDY    79  72  79 CALM      29.94S HX  82
6HR MIN TEMP:  78; 6HR MAX TEMP:  85;

CAIRO*         CLEAR     80  70  70 S3        29.94S HX  84
EFFINGHAM*     PTCLDY    79  68  69 S5        29.92F HX  81
MARION         MOCLDY    79  70  73 SW6       29.95S HX  81
MT. VERNON       N/A     80  68  66 SW8       29.92F HX  83
CENTRALIA*     CLOUDY    81  69  67 SW5       29.92S HX  84
SALEM*         CLOUDY    81  68  65 S3        29.93S HX  83
METROPOLIS*    CLEAR     82  67  62 S3        29.94F HX  84
$$

ILZ067-068-072-073-078-083-087-091-190100-
SOUTHEAST ILLINOIS

CITY           SKY/WX    TMP DP  RH WIND       PRES   REMARKS
LAWRENCEVILLE  CLEAR     82  64  54 SW6       29.91F HX  83
FLORA*         CLEAR     82  68  63 SW3       29.92S HX  84
FAIRFIELD*     CLOUDY    82  67  61 CALM      29.91F HX  84
HARRISBURG*    CLEAR     81  68  65 CALM      29.93F HX  83
ROBINSON*      CLEAR     76  68  74 SW5       29.91F
CARMI*         CLEAR     76  71  83 S3        29.92F
$$

ABBREVIATIONS USED IN REMARKS
   TC - TEMPERATURE IN CELSIUS
  WCI - WIND CHILL INDEX
   HX - HEAT INDEX
  VSB - VISIBILITY
$$




USA.gov is the U.S. government's official web portal to all federal, state and local government web resources and services.